| time (UTC) | temp F | wind direction | speed MPH | gust MPH | rain 1hr in | rain 24hr in | rain mn in | humidity % | barometer mb |
| 20260508110935 | 60 | 6 | 3.0 | 6.0 | 0.00 | 0.00 | 0.00 | 67 | 980.8 |
| 20260508104934 | 60 | 54 | 5.0 | 8.0 | 0.00 | 0.00 | 0.00 | 66 | 980.6 |
| 20260508102935 | 62 | 323 | 2.0 | 6.0 | 0.00 | 0.00 | 0.00 | 65 | 980.7 |
| 20260508101932 | 62 | 2 | 1.0 | 1.0 | 0.00 | 0.00 | 0.00 | 67 | 980.8 |
| 20260508100935 | 60 | 338 | 0.0 | 1.0 | 0.00 | 0.00 | 0.00 | 70 | 980.9 |
| 20260508094932 | 59 | 151 | 0.0 | 2.0 | 0.00 | 0.00 | 0.00 | 71 | 980.8 |
| 20260508091934 | 56 | 202 | 0.0 | 1.0 | 0.00 | 0.00 | 0.00 | 81 | 980.9 |
| 20260508084934 | 56 | 225 | 0.0 | 0.0 | 0.00 | 0.00 | 0.00 | 75 | 980.7 |
| 20260508083936 | 56 | 225 | 0.0 | 0.0 | 0.00 | 0.00 | 0.00 | 76 | 980.7 |
| 20260508082935 | 55 | 225 | 0.0 | 0.0 | 0.00 | 0.00 | 0.00 | 82 | 980.7 |
| 20260508081934 | 55 | 267 | 0.0 | 1.0 | 0.00 | 0.00 | 0.00 | 84 | 980.2 |
| 20260508075935 | 55 | 315 | 0.0 | 0.0 | 0.00 | 0.00 | 0.00 | 82 | 980.6 |
| 20260508074932 | 54 | 338 | 0.0 | 0.0 | 0.00 | 0.00 | 0.00 | 82 | 980.6 |
| 20260508073935 | 54 | 338 | 0.0 | 0.0 | 0.00 | 0.00 | 0.00 | 82 | 980.2 |
| 20260508071932 | 53 | 338 | 1.0 | 1.0 | 0.00 | 0.00 | 0.00 | 86 | 980.5 |
| 20260508070935 | 53 | 338 | 0.0 | 1.0 | 0.00 | 0.00 | 0.00 | 86 | 980.7 |
| 20260508065933 | 51 | 326 | 1.0 | 3.0 | 0.00 | 0.00 | 0.00 | 90 | 980.7 |
| 20260508064932 | 50 | 338 | 0.0 | 2.0 | 0.00 | 0.00 | 0.00 | 93 | 980.4 |
| 20260508063935 | 50 | 338 | 0.0 | 0.0 | 0.00 | 0.00 | 0.00 | 93 | 980.4 |
| 20260508061934 | 49 | 225 | 0.0 | 0.0 | 0.00 | 0.00 | 0.00 | 92 | 980.5 |
| 20260508054933 | 49 | 338 | 0.0 | 0.0 | 0.00 | 0.00 | 0.00 | 93 | 980.1 |
| 20260508053935 | 49 | 353 | 0.0 | 1.0 | 0.00 | 0.00 | 0.00 | 93 | 980.0 |
| 20260508051935 | 48 | 135 | 0.0 | 0.0 | 0.00 | 0.00 | 0.00 | 93 | 979.8 |
| 20260508050935 | 48 | 135 | 0.0 | 0.0 | 0.00 | 0.00 | 0.00 | 92 | 979.9 |
| 20260508044932 | 48 | 338 | 2.0 | 3.0 | 0.00 | 0.00 | 0.00 | 94 | 979.8 |
| 20260508034933 | 47 | 45 | 1.0 | 2.0 | 0.00 | 0.00 | 0.00 | 94 | 980.2 |
| 20260508032932 | 47 | 68 | 0.0 | 1.0 | 0.00 | 0.00 | 0.00 | 94 | 980.2 |
| 20260508031934 | 47 | 152 | 0.0 | 0.0 | 0.00 | 0.00 | 0.00 | 94 | 980.1 |
| 20260508025932 | 47 | 20 | 0.0 | 0.0 | 0.00 | 0.00 | 0.00 | 94 | 980.1 |
| 20260508024933 | 47 | 338 | 0.0 | 0.0 | 0.00 | 0.00 | 0.00 | 93 | 980.3 |
| 20260508022932 | 47 | 0 | 0.0 | 0.0 | 0.00 | 0.00 | 0.00 | 93 | 980.4 |
| 20260508015931 | 47 | 68 | 1.0 | 2.0 | 0.00 | 0.00 | 0.00 | 92 | 980.5 |
| 20260508014933 | 47 | 0 | 0.0 | 1.0 | 0.00 | 0.00 | 0.00 | 91 | 980.4 |
| 20260508012934 | 47 | 5 | 0.0 | 1.0 | 0.00 | 0.00 | 0.00 | 89 | 980.7 |
| 20260508011931 | 49 | 338 | 0.0 | 0.0 | 0.00 | 0.00 | 0.00 | 88 | 980.8 |
| 20260508005934 | 51 | 338 | 1.0 | 2.0 | 0.00 | 0.00 | 0.00 | 88 | 981.0 |
| 20260508004931 | 50 | 22 | 0.0 | 1.0 | 0.00 | 0.00 | 0.00 | 90 | 981.1 |
| 20260508002932 | 50 | 315 | 0.0 | 1.0 | 0.00 | 0.00 | 0.00 | 90 | 981.4 |
| 20260508001931 | 49 | 315 | 0.0 | 0.0 | 0.00 | 0.00 | 0.00 | 89 | 981.6 |
| 20260507235936 | 51 | 315 | 0.0 | 1.0 | 0.00 | 0.00 | 0.00 | 89 | 981.5 |
| 20260507234931 | 50 | 315 | 0.0 | 1.0 | 0.00 | 0.00 | 0.00 | 89 | 981.6 |
| 20260507232931 | 50 | 338 | 0.0 | 1.0 | 0.00 | 0.00 | 0.00 | 89 | 981.5 |
| 20260507231932 | 51 | 315 | 0.0 | 1.0 | 0.00 | 0.00 | 0.00 | 89 | 981.8 |
| 20260507224932 | 51 | 338 | 0.0 | 0.0 | 0.00 | 0.00 | 0.00 | 87 | 981.7 |
| 20260507222931 | 53 | 338 | 0.0 | 0.0 | 0.00 | 0.00 | 0.00 | 84 | 981.9 |
| 20260507221931 | 54 | 338 | 0.0 | 1.0 | 0.00 | 0.00 | 0.00 | 83 | 981.9 |
| 20260507215932 | 53 | 338 | 2.0 | 5.0 | 0.00 | 0.00 | 0.00 | 85 | 982.2 |
| 20260507214932 | 52 | 348 | 2.0 | 3.0 | 0.00 | 0.00 | 0.00 | 85 | 982.3 |
| 20260507212931 | 53 | 300 | 1.0 | 3.0 | 0.00 | 0.00 | 0.00 | 82 | 982.4 |
| 20260507211932 | 53 | 338 | 1.0 | 2.0 | 0.00 | 0.00 | 0.00 | 81 | 982.2 |
| 20260507205930 | 53 | 344 | 0.0 | 1.0 | 0.00 | 0.00 | 0.00 | 79 | 982.0 |
| 20260507204932 | 53 | 321 | 2.0 | 3.0 | 0.00 | 0.00 | 0.00 | 80 | 982.1 |
| 20260507202932 | 54 | 0 | 2.0 | 5.0 | 0.00 | 0.00 | 0.00 | 80 | 981.6 |
| 20260507201932 | 55 | 338 | 0.0 | 1.0 | 0.00 | 0.00 | 0.00 | 79 | 981.4 |
| 20260507195930 | 57 | 12 | 0.0 | 1.0 | 0.00 | 0.00 | 0.00 | 74 | 981.2 |
| 20260507194933 | 58 | 18 | 1.0 | 3.0 | 0.00 | 0.00 | 0.00 | 71 | 981.0 |
| 20260507192931 | 59 | 225 | 0.0 | 0.0 | 0.00 | 0.00 | 0.00 | 73 | 980.9 |
| 20260507191930 | 59 | 36 | 0.0 | 3.0 | 0.00 | 0.00 | 0.00 | 71 | 980.9 |
| 20260507190934 | 60 | 61 | 2.0 | 5.0 | 0.00 | 0.00 | 0.00 | 70 | 980.8 |
| 20260507185933 | 61 | 55 | 2.0 | 3.0 | 0.00 | 0.00 | 0.00 | 70 | 980.5 |
| 20260507184932 | 61 | 39 | 3.0 | 6.0 | 0.00 | 0.00 | 0.00 | 68 | 980.6 |
| 20260507182932 | 62 | 45 | 3.0 | 7.0 | 0.00 | 0.00 | 0.00 | 65 | 980.5 |
| 20260507181931 | 63 | 38 | 2.0 | 5.0 | 0.00 | 0.00 | 0.00 | 64 | 980.5 |
| 20260507171933 | 65 | 69 | 2.0 | 5.0 | 0.00 | 0.00 | 0.00 | 60 | 980.4 |
| 20260507170933 | 65 | 170 | 0.0 | 2.0 | 0.00 | 0.00 | 0.00 | 67 | 980.3 |
| 20260507165932 | 64 | 198 | 1.0 | 3.0 | 0.00 | 0.00 | 0.00 | 67 | 980.3 |
| 20260507164932 | 64 | 128 | 0.0 | 2.0 | 0.00 | 0.00 | 0.00 | 69 | 980.1 |
| 20260507163932 | 65 | 202 | 0.0 | 1.0 | 0.00 | 0.00 | 0.00 | 67 | 980.0 |
| 20260507162933 | 64 | 157 | 0.0 | 2.0 | 0.00 | 0.00 | 0.00 | 68 | 980.1 |
| 20260507161932 | 64 | 180 | 2.0 | 6.0 | 0.00 | 0.00 | 0.00 | 70 | 980.1 |
| 20260507160932 | 65 | 119 | 1.0 | 2.0 | 0.00 | 0.00 | 0.00 | 69 | 980.3 |
| 20260507155933 | 64 | 113 | 1.0 | 2.0 | 0.00 | 0.00 | 0.00 | 71 | 980.3 |
| 20260507154932 | 64 | 137 | 0.0 | 1.0 | 0.00 | 0.00 | 0.00 | 71 | 980.2 |
| 20260507153932 | 64 | 179 | 3.0 | 7.0 | 0.00 | 0.00 | 0.00 | 70 | 980.3 |
| 20260507152933 | 67 | 213 | 2.0 | 3.0 | 0.00 | 0.00 | 0.00 | 68 | 980.5 |
| 20260507151932 | 66 | 135 | 2.0 | 5.0 | 0.00 | 0.00 | 0.00 | 59 | 980.5 |
| 20260507150931 | 65 | 68 | 5.0 | 10.0 | 0.00 | 0.00 | 0.00 | 57 | 980.3 |
| 20260507145933 | 67 | 23 | 6.0 | 9.0 | 0.00 | 0.00 | 0.00 | 54 | 980.3 |
| 20260507144933 | 66 | 51 | 2.0 | 5.0 | 0.00 | 0.00 | 0.00 | 55 | 980.2 |
| 20260507142933 | 68 | 142 | 2.0 | 5.0 | 0.00 | 0.00 | 0.00 | 56 | 980.3 |
| 20260507140931 | 67 | 353 | 2.0 | 5.0 | 0.00 | 0.00 | 0.00 | 58 | 980.5 |
| 20260507134932 | 67 | 69 | 2.0 | 6.0 | 0.00 | 0.00 | 0.00 | 67 | 980.7 |
| 20260507132933 | 65 | 129 | 0.0 | 2.0 | 0.00 | 0.00 | 0.00 | 72 | 980.6 |
| 20260507130931 | 61 | 320 | 0.0 | 1.0 | 0.00 | 0.00 | 0.00 | 78 | 980.9 |
| 20260507124932 | 62 | 338 | 0.0 | 0.0 | 0.00 | 0.00 | 0.00 | 76 | 981.1 |
| 20260507123933 | 62 | 19 | 0.0 | 0.0 | 0.00 | 0.00 | 0.00 | 75 | 981.3 |
| 20260507122931 | 61 | 164 | 0.0 | 1.0 | 0.00 | 0.00 | 0.00 | 75 | 981.5 |
| 20260507120931 | 62 | 310 | 0.0 | 2.0 | 0.00 | 0.00 | 0.00 | 71 | 981.7 |
| 20260507114932 | 60 | 180 | 1.0 | 2.0 | 0.00 | 0.00 | 0.00 | 72 | 981.5 |
| 20260507112933 | 60 | 90 | 2.0 | 6.0 | 0.00 | 0.00 | 0.00 | 74 | 981.8 |
| 20260507111932 | 60 | 157 | 0.0 | 2.0 | 0.00 | 0.00 | 0.00 | 74 | 981.8 |